Location: Devargunta
(16.7631°N, 80.9077°E)
Time: 15:42:37
(UTC+00:00)

Meteor 2-19 Rocket - Pass Details

Date: 19 January 2021
Orbit: 935 x 959 km, 82.5° (Epoch: 25 February)

Event Time Altitude Azimuth Distance (km) Brightness Sun altitude
Rises 13:58:25 0° 185° (S) 3,616 7.7 -22.0°
Reaches altitude 10° 14:00:54 10° 186° (S) 2,674 7.0 -22.6°
Maximum altitude 14:07:02 85° 274° (W) 964 4.4 -24.0°
Enters shadow 14:12:46 12° 3° (N) 2,526 6.5 -25.3°
